CW9585 Weather Reports


Display with metric or nautical units.
time (UTC)temp
F
wind
direction
speed
MPH
gust
MPH
rain 1hr
in
rain 24hr
in
rain mn
in
humidity
%
barometer
mb
20260510082704 55 286 1.0 3.0 0.00 0.00 0.00 89 1015.5
20260510082205 55 287 1.0 3.0 0.00 0.00 0.00 89 1015.5
20260510081705 55 288 1.0 3.0 0.00 0.00 0.00 89 1015.6
20260510081204 56 288 1.0 2.0 0.00 0.00 0.00 89 1015.5
20260510080705 56 288 0.0 3.0 0.00 0.00 0.00 89 1015.5
20260510080205 56 286 0.0 3.0 0.00 0.00 0.00 89 1015.5
20260510075705 56 286 0.0 3.0 0.00 0.00 0.00 89 1015.6
20260510075205 56 250 0.0 3.0 0.00 0.00 0.00 89 1015.5
20260510074705 56 250 0.0 0.0 0.00 0.00 0.00 89 1015.6
20260510074204 56 241 0.0 0.0 0.00 0.00 0.00 88 1015.5
20260510073704 56 241 0.0 1.0 0.00 0.00 0.00 88 1015.5
20260510073205 56 236 0.0 1.0 0.00 0.00 0.00 88 1015.5
20260510072704 56 251 0.0 1.0 0.00 0.00 0.00 88 1015.5
20260510072204 56 134 0.0 1.0 0.00 0.00 0.00 87 1015.5
20260510071204 56 134 0.0 1.0 0.00 0.00 0.00 87 1015.6
20260510070704 56 134 0.0 0.0 0.00 0.00 0.00 86 1015.6
20260510070205 56 134 0.0 0.0 0.00 0.00 0.00 86 1015.6
20260510065704 56 134 0.0 0.0 0.00 0.00 0.00 86 1015.6
20260510064706 56 134 0.0 0.0 0.00 0.00 0.00 86 1015.7
20260510064205 56 134 0.0 0.0 0.00 0.00 0.00 86 1015.7
20260510063704 57 134 0.0 0.0 0.00 0.00 0.00 86 1015.7
20260510063204 57 134 0.0 0.0 0.00 0.00 0.00 86 1015.7
20260510062704 57 134 0.0 0.0 0.00 0.00 0.00 86 1015.7
20260510062206 57 134 0.0 0.0 0.00 0.00 0.00 86 1015.6
20260510061704 57 134 0.0 0.0 0.00 0.00 0.00 86 1015.6
20260510061204 57 134 0.0 2.0 0.00 0.00 0.00 86 1015.7
20260510060705 57 134 0.0 2.0 0.00 0.00 0.00 86 1015.7
20260510060204 57 134 0.0 3.0 0.00 0.00 0.00 86 1015.7
20260510055704 57 134 0.0 3.0 0.00 0.00 0.00 86 1015.6
20260510055204 57 134 0.0 3.0 0.00 0.00 0.00 86 1015.6
20260510054705 57 107 0.0 2.0 0.00 0.00 0.00 85 1015.7
20260510054205 58 107 0.0 3.0 0.00 0.00 0.00 85 1015.7
20260510053705 58 107 0.0 3.0 0.00 0.00 0.00 85 1015.7
20260510053204 58 116 0.0 3.0 0.00 0.00 0.00 85 1015.7
20260510052704 58 69 0.0 3.0 0.00 0.00 0.00 85 1015.7
20260510052204 58 132 1.0 3.0 0.00 0.00 0.00 85 1015.7
20260510051705 58 109 1.0 3.0 0.00 0.00 0.00 85 1015.6
20260510051204 58 116 0.0 3.0 0.00 0.00 0.00 85 1015.5
20260510050206 58 77 1.0 5.0 0.00 0.00 0.00 85 1015.5
20260510045205 58 105 1.0 4.0 0.00 0.00 0.00 85 1015.4
20260510044705 59 96 1.0 5.0 0.00 0.00 0.00 85 1015.3
20260510043704 59 120 2.0 6.0 0.00 0.00 0.00 85 1015.2
20260510043204 59 116 2.0 6.0 0.00 0.00 0.00 85 1015.2
20260510042704 59 135 1.0 6.0 0.00 0.00 0.00 84 1015.1
20260510042206 59 146 1.0 7.0 0.00 0.00 0.00 84 1015.0
20260510041204 59 138 2.0 7.0 0.00 0.00 0.00 84 1015.0
20260510040704 59 125 2.0 7.0 0.00 0.00 0.00 84 1014.9
20260510040204 60 120 2.0 7.0 0.00 0.00 0.00 83 1014.8
20260510035204 60 112 1.0 6.0 0.00 0.00 0.00 83 1014.7
20260510034706 60 120 1.0 6.0 0.00 0.00 0.00 83 1014.7
20260510034206 60 112 2.0 6.0 0.00 0.00 0.00 83 1014.7
20260510033204 60 185 2.0 5.0 0.00 0.00 0.00 82 1014.5
20260510032704 61 133 2.0 8.0 0.00 0.00 0.00 82 1014.5
20260510032204 61 118 3.0 9.0 0.00 0.00 0.00 82 1014.6
20260510031704 61 120 5.0 9.0 0.00 0.00 0.00 81 1014.5
20260510031204 61 118 4.0 7.0 0.00 0.00 0.00 81 1014.5
20260510030704 62 143 3.0 7.0 0.00 0.00 0.00 80 1014.4
20260510025705 62 123 1.0 7.0 0.00 0.00 0.00 80 1014.4
20260510024705 62 134 1.0 7.0 0.00 0.00 0.00 79 1014.3
20260510024204 62 153 2.0 6.0 0.00 0.00 0.00 78 1014.2
20260510023704 63 155 2.0 7.0 0.00 0.00 0.00 78 1014.3
20260510023205 63 140 2.0 9.0 0.00 0.00 0.00 78 1014.1
20260510022705 63 186 2.0 9.0 0.00 0.00 0.00 77 1014.2
20260510022204 64 161 3.0 9.0 0.00 0.00 0.00 77 1014.2
20260510021704 64 120 3.0 8.0 0.00 0.00 0.00 76 1014.2
20260510021205 64 130 2.0 9.0 0.00 0.00 0.00 76 1014.2
20260510020705 64 202 3.0 9.0 0.00 0.00 0.00 75 1014.1
20260510020205 65 161 4.0 9.0 0.00 0.00 0.00 74 1014.2
20260510015704 65 123 5.0 10.0 0.00 0.00 0.00 74 1014.1
20260510015205 65 167 5.0 10.0 0.00 0.00 0.00 73 1014.1
20260510014205 67 131 3.0 7.0 0.00 0.00 0.00 71 1014.1
20260510013704 67 101 2.0 7.0 0.00 0.00 0.00 70 1014.0
20260510013204 67 117 3.0 6.0 0.00 0.00 0.00 70 1014.1
20260510012704 67 107 2.0 7.0 0.00 0.00 0.00 70 1013.9
20260510012204 67 57 1.0 8.0 0.00 0.00 0.00 70 1014.0
20260510011704 68 134 3.0 8.0 0.00 0.00 0.00 70 1014.0
20260510011204 67 101 3.0 8.0 0.00 0.00 0.00 69 1013.9
20260510010705 68 65 2.0 6.0 0.00 0.00 0.00 68 1013.9
20260510010205 69 78 2.0 5.0 0.00 0.00 0.00 68 1014.0
20260510005705 69 220 2.0 5.0 0.00 0.00 0.00 67 1013.9
20260510005205 69 173 2.0 5.0 0.00 0.00 0.00 67 1014.0
20260510004206 69 94 2.0 5.0 0.00 0.00 0.00 69 1013.9
20260510003705 69 98 2.0 8.0 0.00 0.00 0.00 69 1014.0
20260510002704 69 119 3.0 8.0 0.00 0.00 0.00 69 1013.9
20260510002206 68 148 3.0 7.0 0.00 0.00 0.00 70 1014.0
20260510001704 69 111 3.0 7.0 0.00 0.00 0.00 68 1014.0
20260510001205 69 120 3.0 7.0 0.00 0.00 0.00 67 1013.9
20260510000205 69 127 3.0 7.0 0.00 0.00 0.00 66 1013.9
20260509235704 69 178 2.0 5.0 0.00 0.00 0.00 66 1013.9
20260509235204 69 146 2.0 5.0 0.00 0.00 0.00 66 1013.9
20260509234705 69 144 2.0 7.0 0.00 0.00 0.00 65 1013.9
20260509234204 70 145 3.0 8.0 0.00 0.00 0.00 64 1014.0
20260509233704 70 88 3.0 8.0 0.00 0.00 0.00 64 1013.9
20260509233204 70 155 2.0 8.0 0.00 0.00 0.00 63 1013.9
20260509232705 70 178 2.0 6.0 0.00 0.00 0.00 64 1013.9
20260509232204 70 95 3.0 6.0 0.00 0.00 0.00 64 1014.0
20260509231705 70 122 2.0 8.0 0.00 0.00 0.00 64 1014.0
20260509231204 70 123 3.0 8.0 0.00 0.00 0.00 65 1014.1
20260509230704 69 134 3.0 8.0 0.00 0.00 0.00 65 1014.0
20260509230204 69 136 4.0 7.0 0.00 0.00 0.00 66 1014.1
20260509225205 69 148 3.0 7.0 0.00 0.00 0.00 66 1014.1
20260509224205 69 115 4.0 6.0 0.00 0.00 0.00 66 1014.2
20260509223704 68 121 3.0 6.0 0.00 0.00 0.00 66 1014.3
20260509223204 68 113 3.0 8.0 0.00 0.00 0.00 69 1014.4
20260509222704 68 118 3.0 8.0 0.00 0.00 0.00 70 1014.5
20260509222205 67 123 4.0 8.0 0.00 0.00 0.00 70 1014.6
20260509221704 68 123 4.0 8.0 0.00 0.00 0.00 70 1014.6
20260509221205 68 126 3.0 8.0 0.00 0.00 0.00 70 1014.6
20260509220705 67 148 3.0 8.0 0.00 0.00 0.00 71 1014.6
20260509214705 67 147 3.0 7.0 0.00 0.00 0.00 73 1014.7
20260509214204 67 144 3.0 8.0 0.00 0.00 0.00 74 1014.8
20260509213706 66 120 4.0 8.0 0.00 0.00 0.00 74 1014.8
20260509213205 65 109 4.0 8.0 0.00 0.00 0.00 75 1014.9
20260509212705 65 123 5.0 8.0 0.00 0.00 0.00 75 1015.0
20260509212205 65 98 5.0 9.0 0.00 0.00 0.00 76 1015.0
20260509211204 64 123 4.0 9.0 0.00 0.00 0.00 76 1015.1
20260509210704 64 137 4.0 8.0 0.00 0.00 0.00 77 1015.2
20260509210204 64 112 4.0 8.0 0.00 0.00 0.00 77 1015.2
20260509205706 64 123 4.0 8.0 0.00 0.00 0.00 77 1015.3
20260509205204 63 67 4.0 9.0 0.00 0.00 0.00 77 1015.3
20260509204705 64 112 4.0 9.0 0.00 0.00 0.00 78 1015.4
20260509204204 63 123 5.0 9.0 0.00 0.00 0.00 78 1015.4
20260509203704 63 138 5.0 9.0 0.00 0.00 0.00 77 1015.7
20260509203205 63 140 4.0 9.0 0.00 0.00 0.00 77 1015.7
20260509202704 63 122 3.0 9.0 0.00 0.00 0.00 78 1015.7
20260509202204 63 120 3.0 9.0 0.00 0.00 0.00 77 1015.8
20260509201705 63 113 3.0 8.0 0.00 0.00 0.00 77 1015.8
20260509201204 63 138 4.0 9.0 0.00 0.00 0.00 78 1015.8
20260509200704 62 79 4.0 9.0 0.00 0.00 0.00 77 1015.9
20260509200205 63 103 4.0 9.0 0.00 0.00 0.00 79 1016.0
20260509195704 62 157 3.0 9.0 0.00 0.00 0.00 78 1016.0
20260509195204 63 200 4.0 9.0 0.00 0.00 0.00 78 1016.1
20260509194206 62 117 4.0 8.0 0.00 0.00 0.00 79 1016.2
20260509193704 62 130 3.0 7.0 0.00 0.00 0.00 80 1016.3
20260509193204 62 109 3.0 9.0 0.00 0.00 0.00 81 1016.3
20260509192705 61 213 3.0 9.0 0.00 0.00 0.00 82 1016.3
20260509192204 60 179 3.0 7.0 0.00 0.00 0.00 83 1016.3
20260509191706 60 130 3.0 9.0 0.00 0.00 0.00 84 1016.4
20260509191204 59 164 3.0 9.0 0.00 0.00 0.00 84 1016.5
20260509190705 59 182 3.0 6.0 0.00 0.00 0.00 84 1016.6
20260509190204 59 141 2.0 7.0 0.00 0.00 0.00 85 1016.6
20260509185704 58 153 3.0 7.0 0.00 0.00 0.00 86 1016.7
20260509185205 58 154 3.0 7.0 0.00 0.00 0.00 86 1016.8
20260509184705 58 214 3.0 7.0 0.00 0.00 0.00 87 1016.7
20260509184204 58 175 3.0 7.0 0.00 0.00 0.00 87 1016.9
20260509183704 57 153 3.0 6.0 0.00 0.00 0.00 88 1016.8
20260509182704 57 156 3.0 6.0 0.00 0.00 0.00 89 1016.8
20260509181704 56 130 2.0 7.0 0.00 0.00 0.00 90 1016.9
20260509181204 56 137 3.0 7.0 0.00 0.00 0.00 90 1017.0
20260509180704 56 119 3.0 7.0 0.00 0.00 0.00 90 1016.9
20260509180204 56 170 2.0 7.0 0.00 0.00 0.00 91 1017.0
20260509175704 56 92 2.0 6.0 0.00 0.00 0.00 91 1016.9
20260509174705 56 171 2.0 5.0 0.00 0.00 0.00 92 1016.9
20260509174206 55 128 2.0 5.0 0.00 0.00 0.00 92 1017.0
20260509173705 55 127 2.0 5.0 0.00 0.00 0.00 92 1017.0
20260509173204 55 214 1.0 4.0 0.00 0.00 0.00 92 1016.9
20260509172204 55 207 2.0 7.0 0.00 0.00 0.00 92 1016.9
20260509171204 54 113 2.0 6.0 0.00 0.00 0.00 92 1016.9
20260509170705 54 165 1.0 6.0 0.00 0.00 0.00 92 1016.8
20260509170204 54 82 2.0 6.0 0.00 0.00 0.00 92 1016.8
20260509165704 54 117 2.0 4.0 0.00 0.00 0.00 92 1016.9
20260509165204 54 57 1.0 4.0 0.00 0.00 0.00 92 1017.0
20260509164704 54 135 1.0 4.0 0.00 0.00 0.00 92 1017.0
20260509164204 54 136 1.0 5.0 0.00 0.00 0.00 92 1017.0
20260509163704 54 110 2.0 5.0 0.00 0.00 0.00 92 1017.0
20260509163205 54 124 3.0 5.0 0.00 0.00 0.00 92 1017.1
20260509162704 54 124 2.0 5.0 0.00 0.00 0.00 92 1017.1
20260509161704 54 103 0.0 4.0 0.00 0.00 0.00 92 1017.1
20260509160704 54 107 1.0 4.0 0.00 0.00 0.00 92 1017.2
20260509160204 54 144 0.0 4.0 0.00 0.00 0.00 92 1017.2
20260509155704 54 144 1.0 4.0 0.00 0.00 0.00 92 1017.2
20260509155204 54 192 1.0 4.0 0.00 0.00 0.00 92 1017.2
20260509154704 54 153 1.0 4.0 0.00 0.00 0.00 92 1017.2
20260509154204 54 178 1.0 5.0 0.00 0.00 0.00 92 1017.2
20260509153705 54 120 2.0 5.0 0.00 0.00 0.00 92 1017.1
20260509153204 53 90 2.0 5.0 0.00 0.00 0.00 92 1017.0
20260509152705 54 111 1.0 4.0 0.00 0.00 0.00 92 1017.0
20260509152206 54 132 1.0 4.0 0.00 0.00 0.00 92 1017.0
20260509151205 53 133 1.0 3.0 0.00 0.00 0.00 92 1017.0
20260509150704 53 58 0.0 0.0 0.00 0.00 0.00 92 1017.0
20260509150204 53 279 0.0 0.0 0.00 0.00 0.00 92 1017.0
20260509145705 53 279 0.0 3.0 0.00 0.00 0.00 92 1017.0
20260509144704 52 279 1.0 3.0 0.00 0.00 0.00 92 1017.1
20260509143704 52 290 0.0 0.0 0.00 0.00 0.00 92 1017.0
20260509143204 52 296 0.0 0.0 0.00 0.00 0.00 92 1016.9
20260509142705 53 274 0.0 0.0 0.00 0.00 0.00 92 1016.8
20260509142204 53 279 0.0 0.0 0.00 0.00 0.00 92 1016.8
20260509141704 52 279 0.0 0.0 0.00 0.00 0.00 92 1016.7
20260509141204 52 278 0.0 0.0 0.00 0.00 0.00 92 1016.6
20260509140704 53 278 0.0 0.0 0.00 0.00 0.00 92 1016.6
20260509140205 53 278 0.0 0.0 0.00 0.00 0.00 92 1016.5
20260509135204 53 284 0.0 0.0 0.00 0.00 0.00 92 1016.5
20260509134205 53 267 0.0 2.0 0.00 0.00 0.00 92 1016.5
20260509133704 53 267 0.0 3.0 0.00 0.00 0.00 92 1016.4
20260509133204 53 267 0.0 4.0 0.00 0.00 0.00 91 1016.3
20260509132704 53 267 1.0 4.0 0.00 0.00 0.00 91 1016.3
20260509132205 53 267 2.0 3.0 0.00 0.00 0.00 91 1016.4
20260509131705 53 233 2.0 3.0 0.00 0.00 0.00 92 1016.3
20260509131205 53 267 2.0 3.0 0.00 0.00 0.00 92 1016.3
20260509130704 53 255 1.0 3.0 0.00 0.00 0.00 92 1016.3
20260509130206 53 295 1.0 3.0 0.00 0.00 0.00 91 1016.2
20260509125705 53 289 1.0 3.0 0.00 0.00 0.00 91 1016.2
20260509125205 53 289 1.0 3.0 0.00 0.00 0.00 91 1016.2
20260509124704 53 289 1.0 4.0 0.00 0.00 0.00 91 1016.3
20260509124205 53 289 2.0 5.0 0.00 0.00 0.00 91 1016.2
20260509123704 53 289 2.0 5.0 0.00 0.00 0.00 91 1016.2
20260509123205 53 288 2.0 4.0 0.00 0.00 0.00 91 1016.3
20260509122704 53 293 2.0 4.0 0.00 0.00 0.00 92 1016.3
20260509121704 53 277 2.0 5.0 0.00 0.00 0.00 91 1016.2
20260509121205 53 287 2.0 5.0 0.00 0.00 0.00 92 1016.2
20260509115705 53 296 0.0 4.0 0.00 0.00 0.00 92 1016.3
20260509114204 53 323 2.0 4.0 0.00 0.00 0.00 92 1016.3
20260509113704 53 309 1.0 4.0 0.00 0.00 0.00 92 1016.2
20260509113204 53 281 1.0 4.0 0.00 0.00 0.00 92 1016.3
20260509111204 53 317 0.0 0.0 0.00 0.00 0.00 92 1016.4
20260509110704 53 302 0.0 0.0 0.00 0.00 0.00 92 1016.4
20260509110205 53 126 0.0 0.0 0.00 0.00 0.00 92 1016.5
20260509105705 53 126 0.0 0.0 0.00 0.00 0.00 92 1016.5
20260509105205 53 126 0.0 0.0 0.00 0.00 0.00 91 1016.6
20260509104204 53 126 0.0 0.0 0.00 0.00 0.00 91 1016.5
20260509103705 52 126 0.0 0.0 0.00 0.00 0.00 91 1016.5
20260509102705 52 126 0.0 0.0 0.00 0.00 0.00 91 1016.5
20260509102204 52 126 0.0 0.0 0.00 0.00 0.00 91 1016.6
20260509101705 52 126 0.0 0.0 0.00 0.00 0.00 91 1016.5
20260509101204 52 126 0.0 0.0 0.00 0.00 0.00 91 1016.5
20260509100206 52 126 0.0 0.0 0.00 0.00 0.00 90 1016.7
20260509095205 52 126 0.0 0.0 0.00 0.00 0.00 91 1016.6
20260509094204 52 126 0.0 0.0 0.00 0.00 0.00 91 1016.7
20260509093704 52 126 0.0 0.0 0.00 0.00 0.00 90 1016.8
20260509093206 52 126 0.0 0.0 0.00 0.00 0.00 90 1016.9
20260509092705 53 126 0.0 0.0 0.00 0.00 0.00 91 1016.9
20260509092205 53 126 0.0 0.0 0.00 0.00 0.00 91 1016.9
20260509091705 53 126 0.0 0.0 0.00 0.00 0.00 91 1016.9
20260509091205 53 126 0.0 0.0 0.00 0.00 0.00 90 1016.9
20260509090705 53 126 0.0 0.0 0.00 0.00 0.00 90 1017.0
20260509090205 53 126 0.0 0.0 0.00 0.00 0.00 90 1017.1
20260509085706 53 126 0.0 0.0 0.00 0.00 0.00 90 1017.1
20260509084704 53 126 0.0 0.0 0.00 0.00 0.00 90 1017.1
20260509084204 53 126 0.0 0.0 0.00 0.00 0.00 90 1017.1
20260509083705 53 126 0.0 0.0 0.00 0.00 0.00 90 1017.1
20260509083204 53 126 0.0 0.0 0.00 0.00 0.00 90 1017.1